TimeCST,TemperatureF,Dew PointF,Humidity,Sea Level PressureIn,VisibilityMPH,Wind Direction,Wind SpeedMPH,Gust SpeedMPH,PrecipitationIn,Events,Conditions,WindDirDegrees,DateUTC
12:52 AM,-8.0,-13.0,79,30.46,-9999.0,ESE,12.7,-,N/A,,Unknown,120,2013-02-20 06:52:00
1:52 AM,-8.0,-13.0,79,30.44,-9999.0,ESE,15.0,-,N/A,,Unknown,120,2013-02-20 07:52:00
2:52 AM,-8.0,-13.0,79,30.41,-9999.0,ESE,15.0,-,N/A,,Unknown,120,2013-02-20 08:52:00
3:52 AM,-8.0,-13.0,79,30.41,-9999.0,SE,12.7,-,N/A,,Unknown,140,2013-02-20 09:52:00
4:52 AM,-7.1,-13.0,75,30.39,-9999.0,ESE,13.8,-,N/A,,Unknown,120,2013-02-20 10:52:00
5:52 AM,-8.0,-13.0,79,30.38,-9999.0,ESE,15.0,-,N/A,,Unknown,110,2013-02-20 11:52:00
6:52 AM,-8.0,-13.0,79,30.38,-9999.0,ESE,12.7,-,N/A,,Unknown,120,2013-02-20 12:52:00
7:52 AM,-6.0,-11.9,75,30.38,-9999.0,SE,13.8,-,N/A,,Unknown,130,2013-02-20 13:52:00
8:52 AM,-4.0,-9.9,76,30.37,-9999.0,SE,12.7,-,N/A,,Unknown,130,2013-02-20 14:52:00
9:52 AM,-2.0,-8.0,76,30.37,-9999.0,SE,15.0,-,N/A,,Unknown,130,2013-02-20 15:52:00
10:52 AM,-0.0,-6.0,76,30.35,-9999.0,SE,15.0,-,N/A,,Unknown,130,2013-02-20 16:52:00
11:52 AM,3.0,-4.0,73,30.32,-9999.0,SE,18.4,-,N/A,,Unknown,130,2013-02-20 17:52:00
12:52 PM,5.0,-2.0,73,30.30,-9999.0,SE,16.1,-,N/A,,Unknown,130,2013-02-20 18:52:00
1:52 PM,8.1,-0.0,70,30.27,-9999.0,SE,12.7,-,N/A,,Unknown,130,2013-02-20 19:52:00
2:52 PM,9.0,1.0,70,30.25,-9999.0,SE,15.0,-,N/A,,Unknown,130,2013-02-20 20:52:00
3:52 PM,10.9,3.0,70,30.22,-9999.0,SE,20.7,-,0.01,,Unknown,140,2013-02-20 21:52:00
4:52 PM,12.0,3.0,67,30.20,-9999.0,SE,19.6,24.2,N/A,,Unknown,140,2013-02-20 22:52:00
5:52 PM,10.9,3.9,73,30.21,-9999.0,SE,13.8,-,N/A,,Unknown,130,2013-02-20 23:52:00
6:52 PM,12.9,5.0,71,30.21,-9999.0,SE,16.1,-,N/A,,Unknown,140,2013-02-21 00:52:00
7:52 PM,12.0,6.1,77,30.20,-9999.0,SSE,16.1,-,N/A,,Unknown,150,2013-02-21 01:52:00
8:52 PM,12.0,6.1,77,30.21,-9999.0,SSE,16.1,-,N/A,,Unknown,160,2013-02-21 02:52:00
9:52 PM,12.0,6.1,77,30.22,-9999.0,SSE,15.0,-,N/A,,Unknown,160,2013-02-21 03:52:00
10:52 PM,10.9,7.0,84,30.22,-9999.0,SE,10.4,-,N/A,,Unknown,140,2013-02-21 04:52:00
11:52 PM,10.9,7.0,84,30.23,-9999.0,SSE,12.7,-,N/A,,Unknown,150,2013-02-21 05:52:00